Location: Joplin
(37.0842°N, 94.5131°W)
Time: 21:58:29
(UTC-05:00)

Hubble Space Telescope - Visible Passes

Search period start: 17 September 2021 00:00
Search period end: 27 September 2021 00:00
Orbit: 535 x 539 km, 28.5° (Epoch: 17 September)

Date Brightness Start Highest point End Pass type
(mag) Time Alt. Az. Time Alt. Az. Time Alt. Az.
17 Sep 2.7 20:38:16 10° WSW 20:41:07 18° SSW 20:42:43 15° SSE visible
18 Sep 3.0 20:27:25 10° SW 20:29:59 16° SSW 20:32:18 11° SSE visible
19 Sep 3.2 20:16:41 10° SW 20:18:50 14° SSW 20:21:00 10° SSE visible
20 Sep 3.3 20:06:11 10° SW 20:07:42 12° SSW 20:09:12 10° S visible
